Location: Follega
(52.8850°N, 5.7362°E)
Time: 18:49:42
(UTC+00:00)

STARLINK-1230 - Visible Passes

Search period start: 25 September 2020 00:00
Search period end: 05 October 2020 00:00
Orbit: 549 x 550 km, 53.0° (Epoch: 25 September)

Date Brightness Start Highest point End Pass type
(mag) Time Alt. Az. Time Alt. Az. Time Alt. Az.
25 Sep 5.8 02:00:42 21° E 02:00:42 21° E 02:02:22 10° E visible
25 Sep 3.5 03:36:21 38° WSW 03:37:51 85° S 03:42:01 10° E visible
26 Sep 5.9 01:55:25 20° E 01:55:25 20° E 01:56:53 10° E visible
26 Sep 3.5 03:31:04 44° W 03:32:21 90° ESE 03:36:30 10° E visible
27 Sep 6.1 01:50:10 19° E 01:50:10 19° E 01:51:24 10° E visible
27 Sep 3.5 03:25:50 50° W 03:26:51 88° N 03:31:01 10° E visible
28 Sep 6.2 01:44:58 17° E 01:44:58 17° E 01:45:57 10° E visible
28 Sep 3.5 03:20:38 58° W 03:21:23 87° N 03:25:34 10° E visible
28 Sep 3.8 04:56:51 10° W 05:00:58 63° SSW 05:05:03 10° ESE visible
29 Sep 6.4 01:39:49 14° E 01:39:49 14° E 01:40:30 10° E visible
29 Sep 3.5 03:15:29 69° W 03:15:57 88° N 03:20:07 10° E visible
29 Sep 3.9 04:51:25 10° W 04:55:28 54° SSW 04:59:31 10° SE visible
30 Sep 6.6 01:34:44 12° E 01:34:44 12° E 01:35:05 10° E visible
30 Sep 3.4 03:10:24 83° W 03:10:33 90° SSW 03:14:42 10° E visible
30 Sep 4.1 04:46:04 10° W 04:50:00 46° SSW 04:53:58 10° SE visible
01 Oct 3.6 03:05:24 78° ESE 03:05:24 78° ESE 03:09:19 10° ESE visible
01 Oct 4.3 04:41:05 12° W 04:44:32 39° SSW 04:48:23 10° SE visible
02 Oct 4.0 03:00:31 58° ESE 03:00:31 58° ESE 03:03:56 10° ESE visible
02 Oct 4.5 04:36:12 15° W 04:39:04 32° SSW 04:42:46 10° SSE visible
03 Oct 4.5 02:55:45 41° SE 02:55:45 41° SE 02:58:33 10° ESE visible
03 Oct 4.7 04:31:27 17° W 04:33:37 26° SW 04:37:06 10° SSE visible
04 Oct 5.2 02:51:08 28° SE 02:51:08 28° SE 02:53:11 10° ESE visible
04 Oct 5.0 04:26:51 19° WSW 04:28:09 22° SW 04:31:21 10° S visible
